Regional Weather Roundup
Issued by NWS Sioux Falls, SD

Home | Current Version | Previous Version | Text Only | Print | Product List | Glossary Off
Versions: 1 2 3 4 5 6 7 8 9 10 11 12 13 14 15 16 17 18 19 20 21 22 23 24 25 26 27 28 29 30 31 32 33 34 35 36 37 38 39 40 41 42 43 44 45 46 47 48 49 50

000
ASUS43 KFSD 111602
RWRFSD

WEATHER ROUNDUP FOR SE SOUTH DAKOTA/SW MINNESOTA/NW IOWA
NATIONAL WEATHER SERVICE SIOUX FALLS SD
1000 AM CST MON DEC 11 2017

NOTE: "FAIR" INDICATES FEW OR NO CLOUDS BELOW 12,000 FEET WITH NO
SIGNIFICANT WEATHER AND OR OBSTRUCTIONS TO VISIBILITY.


SDZ038>040-050-052>070-111700-
SOUTHEAST SOUTH DAKOTA

CITY           SKY/WX    TMP DP  RH WIND       PRES   REMARKS
BROOKINGS      MIX PCPN  36  33  89 NW23G30   29.91R
CHAMBERLAIN    CLOUDY    43  32  65 NW26G38   30.10R
HURON          CLOUDY    41  33  73 NW30G38   30.01R
MADISON        LGT RAIN  36  36 100 N26G37    29.94R
MITCHELL       CLOUDY    42  33  70 NW30G40   30.02R
SIOUX FALLS    LGT RAIN  39  36  89 NW28G35   29.93R
WINNER         CLOUDY    44  29  55 NW32G44   30.13R
YANKTON        CLOUDY    43  32  65 NW26G32   29.99R
$$

MNZ071-072-080-081-089-090-097-098-111700-
SOUTHWEST MINNESOTA

CITY           SKY/WX    TMP DP  RH WIND       PRES   REMARKS
FAIRMONT       CLOUDY    37  33  85 NW21G30   29.78R
JACKSON        CLOUDY    36  32  87 MISG      29.80R
LUVERNE        CLOUDY    37  32  81 NW23G33   29.88R
MARSHALL       CLOUDY    36  34  92 NW24G30   29.87R
MONTEVIDEO     CLOUDY    36  34  93 N24G32    29.86R
PIPESTONE      LGT RAIN  36  32  87 N23G35    29.87R
REDWOOD FALLS  CLOUDY    38  32  79 NW18G26   29.81R
TRACY          LGT RAIN  37  35  90 NW23G32   29.85R
WINDOM         DRIZZLE   37  25  60 NW25G35   29.80R
WORTHINGTON    MIX PCPN  37  33  85 NW25G32   29.84R
$$

IAZ001>003-012>014-020>022-031-032-NEZ013-014-SDZ071-111700-
NORTHWEST IOWA

CITY           SKY/WX    TMP DP  RH WIND       PRES   REMARKS
CHEROKEE       LGT RAIN  41  33  74 NW22G29   29.87R
DENISON        CLOUDY    43  30  61 NW24G32   29.89R
ESTHERVILLE    CLOUDY    36  33  89 NW21G28   29.79R
LE MARS        CLOUDY    43  34  70 NW26G39   29.91R
ORANGE CITY    CLOUDY    41  37  87 NW21G31   29.88R
SHELDON        CLOUDY    39  34  81 NW24G35   29.85R
SIOUX CITY     PTSUNNY   45  31  58 NW31G45   29.91R
SPENCER        CLOUDY    40  33  76 NW24G33   29.82R
STORM LAKE     CLOUDY    41  32  70 NW31G39   29.83R
$$

ABBREVIATIONS USED IN REMARKS
   TC - TEMPERATURE IN CELSIUS
  WCI - WIND CHILL INDEX
   HX - HEAT INDEX
  VSB - VISIBILITY





USA.gov is the U.S. government's official web portal to all federal, state and local government web resources and services.